Theta_e
319 318 318 317 318 318 319 321 322 323 324 326 326 325 325 326 324 323 326 329 329 328 325 323 321 318 315 314 313 312 312 312 313 314 314 313 311 311 311 310 309 310 310 311 312 313 314 317 318 318 320 321 323 325 325 325 326 326 327 327 328 329 328 327 325 325 325 325 324 323 324 325 325 325 324 323 321 319 319 319 319 318 318 317 317 317 317
319 318 317 317 317 318 318 318 318 320 322 323 324 323 323 325 326 325 326 328 326 321 318 316 315 314 312 311 311 311 311 312 312 312 312 310 309 309 309 308 308 307 308 309 309 309 310 312 313 314 314 315 317 320 323 325 325 325 325 326 326 327 326 326 325 325 324 324 324 324 324 324 324 324 323 322 322 321 321 321 321 320 319 318 318 318 319
319 318 317 317 317 318 318 316 315 317 320 320 320 320 321 324 326 325 325 327 323 316 313 313 313 312 311 310 310 310 309 309 310 309 309 308 308 307 307 307 306 305 306 307 307 307 307 308 309 310 310 311 312 313 315 320 322 322 322 323 323 324 324 323 322 322 322 322 323 323 322 322 321 320 319 319 319 319 319 319 319 321 322 321 321 321 321
319 318 318 318 317 317 316 315 313 314 317 318 319 319 319 321 324 325 324 326 322 315 311 311 311 310 309 308 308 308 307 307 307 307 307 307 306 306 306 305 305 304 304 305 305 305 306 306 306 306 307 308 309 309 310 313 315 316 316 315 316 317 319 319 318 318 318 319 319 319 319 318 318 318 317 317 317 317 317 316 316 319 322 323 323 322 320
320 318 318 317 317 319 318 315 311 312 314 315 317 318 317 316 319 322 323 322 318 314 312 311 309 308 307 307 306 306 306 306 306 306 306 305 305 305 305 304 304 303 303 304 304 304 304 304 304 304 305 306 306 307 308 309 312 313 312 311 312 313 314 314 315 315 316 316 317 317 318 318 318 319 318 318 317 317 317 317 317 319 321 322 321 319 317
319 319 318 318 319 321 317 311 309 311 312 313 315 317 315 314 316 317 317 316 313 312 312 310 307 306 305 304 304 304 304 305 305 304 304 304 304 304 304 304 303 304 304 303 303 303 303 303 303 303 303 304 304 304 305 307 308 309 308 309 310 311 311 311 311 313 314 314 313 313 315 316 316 316 316 315 314 315 315 316 317 318 318 319 318 316 315
318 317 318 321 322 318 313 310 308 309 310 310 312 314 313 312 313 313 312 311 310 308 307 306 305 304 303 302 303 303 303 303 304 303 303 303 303 303 303 303 304 304 303 303 303 303 302 302 302 302 302 302 302 302 303 304 304 305 305 305 306 306 307 307 308 309 310 310 309 309 310 312 313 312 312 311 310 310 311 313 314 314 314 315 315 314 313
318 317 318 321 319 314 311 311 309 308 309 310 312 315 313 309 309 311 310 308 307 305 304 304 303 303 302 302 302 302 302 302 303 303 303 303 303 303 303 303 303 303 303 302 303 302 302 302 302 302 302 302 302 301 301 302 302 302 302 302 303 303 303 304 305 305 306 307 307 306 307 309 309 309 309 308 308 308 308 309 310 310 309 310 310 311 311
317 318 317 316 316 314 312 311 308 307 308 308 309 313 312 307 307 308 307 306 305 304 304 303 303 303 303 303 302 301 301 301 302 302 303 303 303 303 303 303 303 302 302 302 302 302 301 300 300 301 301 301 301 301 300 301 300 300 300 301 301 301 301 301 302 302 303 303 303 303 304 304 305 305 306 306 306 306 306 305 305 305 305 306 306 307 308
315 317 316 315 318 317 312 309 308 306 307 306 306 310 311 307 306 307 306 305 304 303 304 304 304 306 306 304 302 301 301 301 301 302 302 302 302 302 302 302 302 302 302 302 302 302 301 300 300 300 300 300 300 300 300 299 299 299 299 299 299 299 300 300 300 300 300 300 300 301 301 301 301 301 302 303 303 303 304 304 304 304 303 303 303 302 304
315 316 317 316 317 315 310 308 307 306 306 305 306 312 313 308 305 305 305 305 305 304 305 305 306 308 307 304 301 301 301 301 301 302 302 302 302 301 302 301 301 301 301 301 301 301 301 300 300 300 299 299 299 300 300 299 298 298 298 298 298 298 299 299 299 299 299 300 299 299 299 300 300 300 300 301 301 302 303 304 304 304 304 303 302 301 300
314 315 315 313 313 311 308 306 306 306 305 305 310 317 315 307 304 305 304 304 305 305 306 307 307 307 306 302 300 300 301 301 301 302 302 302 302 301 301 300 300 300 301 300 300 300 300 300 300 300 299 299 299 300 299 299 298 298 298 297 297 297 297 297 297 298 299 299 300 300 299 300 300 300 301 301 302 302 303 303 303 303 304 304 303 302 302
313 314 314 312 310 308 306 305 306 306 306 309 314 316 311 305 305 305 304 305 305 305 306 306 304 302 301 299 298 298 299 300 300 301 301 301 302 301 301 300 300 299 299 299 299 299 299 299 299 299 299 299 299 299 298 298 298 298 297 297 297 297 297 296 296 296 297 297 298 299 299 299 300 300 300 300 301 302 302 302 303 303 303 304 304 303 302
313 313 313 312 311 307 304 305 306 306 309 313 312 308 306 305 305 304 305 305 305 303 303 302 301 300 299 298 297 298 298 299 300 301 300 301 301 301 300 300 300 299 299 298 298 298 298 298 299 299 299 298 298 298 297 297 297 297 296 297 297 298 298 297 297 296 296 296 296 296 297 298 299 299 299 299 299 300 301 301 302 302 302 303 304 303 303
312 312 312 312 311 307 304 305 306 306 308 308 305 304 305 305 303 303 303 303 302 301 300 299 299 299 299 299 299 299 299 299 300 301 301 301 302 301 301 300 300 300 299 299 298 298 297 297 298 298 298 298 298 298 297 297 297 296 296 296 297 298 298 299 298 298 297 297 297 297 297 297 298 299 299 299 299 299 301 301 302 302 302 302 303 303 303
310 311 310 309 308 305 303 305 305 304 304 303 303 304 305 304 302 301 301 300 301 300 299 299 299 299 299 299 299 300 300 300 300 301 301 301 301 301 300 300 300 300 299 299 299 298 298 298 297 297 297 297 297 297 297 297 296 296 296 296 297 297 298 298 298 298 298 298 298 298 299 299 299 299 300 300 300 300 301 301 301 302 301 301 302 302 302
307 308 307 305 304 303 303 303 303 303 302 303 304 305 304 303 302 301 299 299 300 300 299 299 299 299 299 300 300 300 300 300 300 300 301 301 301 301 300 300 300 300 299 299 298 298 298 298 298 297 297 297 297 297 297 296 296 296 296 297 297 298 298 298 298 298 299 299 299 299 299 300 300 300 301 301 301 301 301 302 302 302 301 301 301 301 301
305 305 305 304 304 304 304 303 303 303 303 304 304 304 303 302 301 300 300 300 300 299 299 299 299 298 299 300 300 300 300 301 300 300 300 301 301 300 300 300 299 299 299 298 298 298 298 297 297 297 297 297 297 297 297 297 297 297 297 298 298 298 298 298 298 299 299 300 300 300 300 300 300 300 301 301 301 301 302 302 302 302 301 301 301 302 302
306 305 305 305 305 305 304 304 304 304 304 304 304 303 302 302 301 300 301 300 300 300 299 299 298 298 298 299 299 299 300 301 301 301 301 301 301 300 300 300 300 300 299 299 299 299 298 298 297 297 297 297 297 297 297 297 298 298 298 298 298 298 299 299 299 299 299 299 300 300 300 300 301 301 301 301 301 301 301 302 302 302 302 302 301 302 302
305 305 304 304 305 304 303 303 303 303 303 303 303 303 303 302 302 301 301 301 301 300 300 299 299 298 299 299 299 299 299 300 300 301 301 301 301 300 300 300 300 300 300 300 299 299 299 299 298 298 298 297 297 297 297 297 298 298 298 298 298 298 298 298 298 299 299 299 300 300 300 300 300 300 300 301 301 301 300 300 301 301 302 302 302 301 301
304 304 304 304 304 303 303 303 303 303 303 303 303 303 302 302 301 301 301 301 301 301 301 300 300 299 299 300 300 300 300 300 300 300 300 300 300 300 300 301 301 300 300 300 299 299 299 299 299 298 298 298 297 297 297 298 298 298 297 297 298 298 298 298 298 299 299 299 300 300 300 300 299 298 297 298 299 300 299 297 297 298 299 300 300 299 300
303 304 304 304 304 303 303 303 302 302 303 303 303 303 302 302 301 301 301 301 301 302 301 301 301 300 300 300 300 300 299 299 300 300 300 300 300 300 300 301 300 300 300 299 299 299 299 299 299 298 298 298 298 297 298 298 298 298 298 298 298 298 298 298 298 298 299 299 299 299 300 300 299 298 297 296 297 298 297 297 296 296 296 297 297 296 297
303 303 303 304 303 303 303 303 302 302 303 303 303 302 302 302 302 302 301 301 301 301 302 301 301 301 300 300 300 299 299 298 299 299 300 300 300 300 300 300 300 300 300 299 299 299 299 299 299 298 298 298 298 298 298 298 298 298 298 298 298 298 298 297 297 298 298 298 299 299 299 299 299 299 299 298 297 296 296 296 296 295 295 295 295 295 295
303 303 303 304 303 302 303 303 303 303 303 303 302 302 302 302 302 302 302 301 301 301 301 301 301 300 300 300 299 298 297 297 298 298 299 299 300 300 300 300 300 300 300 300 299 299 299 299 298 298 298 298 298 298 298 298 298 298 298 298 298 298 297 297 297 297 298 298 298 299 299 299 299 299 299 299 298 297 296 296 295 295 295 295 295 295 295
303 303 303 304 303 302 303 303 303 303 303 302 301 301 302 302 301 301 301 301 301 301 301 301 300 300 299 299 298 297 297 297 297 298 298 298 298 299 299 299 299 299 299 299 299 299 299 299 298 298 298 298 298 298 298 298 298 298 297 298 298 298 297 297 297 297 298 298 298 298 298 298 299 299 299 299 299 299 298 297 297 296 296 296 295 295 295
302 303 303 303 303 302 302 302 302 302 302 302 301 301 301 301 301 300 299 299 300 300 300 300 299 299 298 298 297 297 297 296 297 297 297 297 297 298 298 298 298 299 299 299 299 299 299 298 298 298 298 298 298 298 298 298 298 297 297 297 297 296 297 297 297 298 298 298 298 298 298 298 298 298 298 298 299 299 299 299 299 298 297 297 296 295 295
302 302 302 302 301 302 302 301 301 301 302 301 300 300 300 300 300 299 299 299 299 299 299 299 298 298 298 297 297 297 297 297 297 297 296 296 296 296 297 297 297 298 298 298 298 298 298 298 298 298 298 298 298 298 298 298 298 297 297 297 297 296 295 296 297 297 297 297 298 298 298 298 298 298 298 298 298 298 299 299 299 299 299 298 297 296 295
301 302 302 301 301 301 302 302 302 302 301 301 300 299 299 300 300 299 299 299 299 299 299 298 298 298 298 297 297 297 297 297 297 296 296 296 296 296 296 296 296 296 296 297 297 297 297 297 298 298 298 298 298 298 298 298 298 298 297 297 297 297 296 296 297 297 297 297 297 297 297 298 298 298 298 298 298 298 298 298 298 299 299 299 298 297 296
301 302 302 302 302 302 302 302 302 301 301 301 300 300 300 299 299 299 299 299 299 299 299 298 298 298 298 298 297 297 297 297 297 297 296 296 296 296 296 296 296 296 295 295 296 296 296 297 297 297 298 298 298 298 298 298 298 298 298 297 297 297 297 296 297 297 297 297 297 296 296 297 297 298 298 297 297 298 298 297 297 298 299 298 298 297 297
301 301 302 302 303 302 301 301 301 300 301 301 301 300 300 299 298 298 299 299 299 299 298 298 298 298 298 298 297 297 297 297 297 297 297 296 296 296 296 296 296 296 296 296 295 295 296 296 296 297 297 298 298 298 298 298 298 298 298 297 297 297 296 295 296 297 297 297 296 296 296 297 297 297 297 297 297 297 297 297 296 297 298 298 297 297 297
300 301 302 302 302 301 300 300 300 300 300 301 301 300 300 299 298 298 299 299 299 299 298 298 298 298 298 298 297 297 298 297 297 297 297 296 295 295 295 295 295 295 296 296 296 295 295 295 296 296 297 297 297 298 298 298 298 298 298 298 297 296 294 294 295 296 296 296 296 296 296 297 297 297 296 296 297 297 297 297 296 297 297 297 296 296 296
300 301 301 301 301 300 300 299 299 299 299 300 300 299 300 300 300 299 300 300 299 299 299 298 298 298 298 298 298 298 297 296 295 295 296 295 294 293 293 293 294 295 294 294 295 294 294 295 295 295 296 296 297 298 298 298 298 298 298 298 298 297 295 294 295 296 296 296 296 296 296 296 296 296 296 296 296 296 296 296 296 296 297 296 296 296 294
299 299 300 300 299 300 300 299 299 299 299 299 299 299 299 299 300 300 300 300 299 299 299 298 298 298 298 298 297 297 295 294 294 294 294 293 293 291 291 291 292 293 293 293 293 294 294 294 294 295 296 296 296 297 298 298 298 298 298 298 297 297 296 295 295 296 296 296 296 296 296 296 296 296 296 296 296 296 296 295 295 296 296 296 296 295 293
299 299 300 300 300 300 300 299 299 299 299 299 299 299 299 299 299 299 299 299 299 299 299 298 299 298 297 296 295 295 294 294 295 294 293 292 291 290 289 290 291 292 293 293 294 294 294 294 294 294 295 295 296 297 298 297 297 298 298 298 297 297 296 296 296 296 296 296 295 295 295 295 295 295 295 295 295 295 295 295 295 295 295 295 295 295 293
300 300 300 300 300 300 300 300 299 299 299 299 299 299 299 299 299 298 298 298 299 299 299 299 298 296 295 294 294 294 294 294 294 293 292 291 290 289 289 290 292 293 294 294 295 295 294 294 293 293 294 294 295 297 297 297 297 297 298 298 297 296 296 296 296 296 295 295 295 295 294 294 294 294 294 295 295 295 295 295 295 295 295 295 295 295 293
300 300 300 300 300 300 300 300 300 299 299 299 299 299 299 298 298 299 298 298 298 298 298 298 297 295 294 294 294 294 294 294 293 293 292 291 290 289 288 290 292 293 293 293 294 295 294 294 293 293 293 293 295 297 297 297 297 297 297 297 297 296 296 296 296 295 295 294 294 294 293 293 293 293 293 294 294 294 294 295 294 294 294 294 294 294 294
299 299 299 299 299 299 300 299 299 299 299 299 299 299 299 298 298 298 298 298 298 298 298 298 296 295 294 294 294 294 294 293 293 293 292 291 290 289 288 289 291 292 292 293 293 293 294 294 293 292 292 293 295 297 297 296 296 297 297 297 297 296 296 295 296 295 295 294 294 293 293 293 293 293 294 294 294 294 294 294 294 294 294 294 294 294 294
299 299 299 299 299 299 299 299 299 299 299 299 299 299 298 298 298 298 298 298 298 298 298 297 297 295 294 294 294 294 294 293 293 292 292 292 291 290 289 290 291 292 293 293 293 292 292 292 291 292 293 294 296 297 296 296 296 296 297 297 297 296 296 295 295 295 295 294 294 294 293 293 293 294 294 294 294 294 294 294 294 294 294 293 293 293 293
299 299 299 299 299 299 299 299 299 299 299 299 299 298 298 298 298 298 298 298 298 297 297 298 297 297 296 296 295 295 294 293 293 292 292 292 291 291 291 292 293 293 293 292 292 292 291 289 290 293 295 296 297 297 296 295 295 296 297 297 297 296 296 295 295 295 295 294 294 293 293 293 293 293 294 294 294 294 293 293 294 294 293 293 293 293 293
299 299 299 299 299 299 299 299 299 299 299 299 299 298 298 298 298 298 298 298 297 297 297 298 297 297 297 297 296 296 295 294 293 293 292 292 292 292 293 293 294 293 292 291 291 292 290 289 290 294 296 296 297 297 296 295 296 296 297 297 297 296 295 295 295 295 295 294 294 293 293 293 293 293 293 294 294 293 294 294 294 294 294 293 293 293 293
299 299 299 299 299 299 299 299 299 298 298 299 299 298 298 298 298 297 297 297 297 297 297 297 297 297 297 297 297 297 296 296 295 294 293 293 294 294 294 294 294 294 292 291 292 291 289 288 290 293 296 297 297 296 295 295 296 296 296 296 296 296 295 295 295 295 295 294 294 294 294 293 293 293 293 294 294 294 294 294 294 294 294 294 293 293 293
299 299 299 299 299 299 299 299 299 299 298 298 298 298 298 298 298 298 297 297 297 297 297 297 296 296 296 297 297 296 296 296 296 296 295 295 295 294 294 293 294 293 292 291 292 292 290 288 289 292 295 296 296 295 294 296 296 295 295 296 296 296 295 295 295 294 294 294 294 294 294 294 294 294 294 294 294 294 294 294 294 294 294 293 293 293 293
299 299 299 299 299 299 299 299 299 299 299 298 298 298 298 298 298 298 297 297 297 297 297 297 296 296 296 296 296 296 296 296 296 296 296 296 295 295 294 293 294 293 291 291 292 293 292 291 291 292 293 294 294 294 294 295 295 295 295 296 296 295 296 295 294 294 294 294 294 294 294 294 294 294 294 294 294 293 294 294 294 294 293 293 293 293 293
299 299 299 299 299 299 299 299 298 299 299 299 298 298 298 298 298 298 298 297 297 297 297 297 297 296 296 296 296 296 297 297 297 297 296 296 296 296 294 293 292 292 291 290 291 293 293 293 292 292 292 292 292 292 293 294 295 295 295 295 295 295 296 295 295 294 294 294 294 294 294 293 294 293 294 294 294 293 293 293 294 293 293 293 293 293 293
299 299 299 299 299 299 299 298 298 299 299 298 298 298 298 298 298 298 298 298 298 297 297 297 297 297 297 297 297 297 297 297 297 297 297 297 297 296 294 292 292 292 291 290 291 292 293 293 292 292 291 291 291 291 292 293 294 294 295 295 295 295 295 295 295 295 294 294 294 294 293 293 293 293 293 294 294 293 293 293 293 293 293 293 293 293 292
299 299 299 299 299 299 299 299 299 299 299 299 299 298 298 298 298 298 298 298 298 297 297 297 297 297 297 297 296 296 296 297 297 297 297 297 297 296 294 293 293 292 291 291 291 292 292 293 292 291 291 291 291 290 291 292 293 294 295 295 295 295 295 295 295 295 294 294 293 293 293 293 293 293 293 293 293 293 293 293 293 293 293 293 293 292 292
299 299 298 298 298 298 299 299 299 299 299 299 299 298 298 298 298 298 298 298 298 298 298 298 298 297 297 297 296 296 297 297 297 297 297 296 296 295 294 293 292 292 291 291 291 291 291 291 291 292 292 291 290 289 291 292 293 294 294 295 295 295 295 295 295 295 294 294 293 293 293 293 293 293 293 293 293 293 292 292 293 293 293 292 292 292 292
298 298 298 298 298 298 298 299 299 299 299 299 299 299 298 298 298 298 298 298 298 298 298 298 298 297 298 297 297 297 297 297 297 297 297 296 296 296 295 293 292 291 291 291 290 290 289 290 291 292 291 290 289 289 291 293 293 293 294 294 295 295 295 295 295 295 295 294 294 294 293 293 293 293 293 293 293 293 292 292 292 292 292 292 292 292 292
298 298 298 298 298 298 298 298 298 298 298 298 298 298 298 298 298 298 298 298 298 298 298 298 298 298 298 297 297 297 297 296 296 297 297 296 296 295 294 292 291 290 291 291 292 290 289 289 290 291 290 289 289 290 291 292 292 293 293 294 294 295 295 295 295 295 295 294 294 294 293 293 293 293 292 292 292 292 292 292 292 292 292 292 292 292 292
298 298 298 298 298 298 298 298 298 298 298 298 298 298 298 298 298 298 297 297 297 297 297 297 297 297 297 297 297 297 297 296 296 296 296 296 295 295 294 293 292 291 290 291 292 291 288 287 288 288 287 288 290 291 291 291 291 292 292 293 294 295 294 294 295 295 295 295 294 294 293 293 293 292 292 292 292 292 292 292 292 292 291 291 291 291 291
298 298 297 297 297 297 297 297 297 297 297 298 298 298 298 298 297 297 297 297 297 297 297 297 297 297 297 297 297 296 296 296 296 296 295 295 295 295 294 293 292 291 290 290 291 291 289 288 288 287 287 288 290 290 290 290 290 291 292 293 294 293 293 293 293 293 294 295 295 294 294 293 293 293 292 292 291 291 291 291 291 291 291 291 291 291 291
297 297 297 297 297 297 297 297 297 297 297 297 297 297 297 297 297 297 297 296 296 297 297 297 297 297 297 297 296 296 296 296 295 295 295 295 295 294 294 293 292 291 290 291 291 290 290 289 288 287 287 289 290 290 289 289 290 292 293 293 292 292 292 291 291 292 293 293 294 294 294 294 293 293 293 292 292 291 291 291 290 290 290 290 290 291 290
Wind_Speed
1 3 3 3 4 4 6 7 6 7 7 6 3 3 5 6 2 1 4 5 5 7 7 8 8 8 8 8 7 7 6 6 6 6 7 9 9 9 10 11 11 11 10 10 12 14 13 12 12 11 10 10 10 12 15 15 15 15 16 17 17 16 15 16 17 16 16 17 18 20 19 16 16 16 16 14 14 13 13 12 11 10 10 10 9 8 8
4 4 4 4 4 5 8 9 8 7 6 6 6 6 6 5 4 5 4 7 10 8 7 9 9 8 8 8 7 7 7 6 6 7 7 9 9 9 10 10 10 11 11 11 13 14 14 13 13 12 12 14 14 13 15 17 17 17 18 18 18 17 16 16 16 16 16 17 17 18 18 17 16 17 16 15 13 13 12 11 10 9 9 8 8 8 8
4 4 5 6 6 7 9 10 10 8 5 5 6 6 6 4 3 5 4 6 6 5 5 7 7 7 8 8 8 7 7 7 7 8 9 9 9 9 10 10 10 11 12 13 15 15 15 15 14 13 13 15 16 16 16 18 17 17 18 18 17 18 17 15 15 15 15 18 19 18 17 18 20 19 18 17 15 13 11 10 9 8 8 8 8 9 9
4 6 8 8 7 7 8 10 11 10 7 6 4 5 6 5 4 3 1 2 3 4 5 6 7 8 8 9 9 7 7 8 8 9 10 9 10 10 9 10 11 12 12 13 14 15 15 16 16 13 14 17 19 18 18 20 20 20 21 20 19 19 17 16 16 18 17 18 20 19 17 20 22 19 16 14 11 9 8 8 8 8 8 9 10 11 11
5 9 10 9 7 4 2 5 7 7 6 7 5 3 6 8 7 4 2 3 4 5 5 5 7 8 8 8 8 7 6 8 8 9 9 9 10 10 10 10 11 12 14 14 15 16 15 16 17 16 18 21 22 20 20 23 26 28 27 25 25 24 21 19 21 22 22 22 22 21 20 19 18 16 13 10 9 8 9 10 11 10 11 11 12 13 14
4 7 9 8 6 3 2 3 5 5 4 8 6 3 7 9 6 4 4 4 5 4 4 5 7 8 8 9 9 8 7 7 7 9 9 9 10 10 10 11 12 13 15 15 16 16 16 17 18 20 22 23 23 23 25 27 30 30 28 27 27 26 23 21 22 22 24 23 20 18 18 18 17 16 16 15 14 12 11 12 12 12 12 13 13 13 13
1 5 6 6 4 1 3 3 6 5 2 6 6 2 8 11 8 6 4 4 5 6 6 7 9 10 10 11 11 11 9 7 8 9 9 10 10 10 11 11 13 15 16 17 17 16 16 16 17 20 23 24 25 26 28 30 31 30 29 27 26 24 22 20 20 19 21 22 21 19 19 21 21 20 20 19 16 14 13 15 16 14 14 15 14 13 12
2 4 4 3 4 5 4 3 7 7 2 5 5 0 7 12 10 6 4 3 5 7 8 8 9 11 11 12 12 12 10 9 9 8 8 10 10 11 12 13 15 16 17 18 17 17 19 20 19 19 21 23 26 28 28 29 31 31 30 28 25 23 21 20 20 19 19 21 21 20 21 22 22 21 20 19 17 16 17 17 18 17 16 15 14 12 11
3 2 3 4 6 6 4 2 6 6 3 5 5 1 5 10 9 6 3 4 6 7 8 9 9 9 10 10 10 10 10 10 10 9 10 11 12 13 14 15 16 17 18 18 17 18 23 26 25 24 23 22 25 27 26 27 30 31 29 27 24 22 19 19 21 21 20 21 20 19 19 20 20 19 18 17 16 16 15 16 16 16 15 14 12 12 11
4 3 5 4 5 4 5 6 6 6 4 4 4 2 2 7 8 6 2 5 7 7 8 8 5 3 5 7 7 7 9 9 9 11 12 13 14 14 13 14 16 16 17 17 16 17 22 25 25 26 25 24 25 25 24 26 30 31 27 23 20 20 18 18 20 21 21 22 22 21 20 19 18 17 17 16 16 13 12 13 13 12 12 12 11 11 10
3 4 4 3 2 3 5 8 8 8 5 3 3 3 1 6 8 5 2 5 6 8 8 4 1 2 3 5 4 5 7 8 9 10 12 14 15 15 14 14 14 14 15 16 16 17 19 19 19 21 23 25 25 22 21 26 29 27 23 19 17 18 18 18 20 20 19 18 18 19 19 18 16 14 13 13 12 10 8 9 9 8 9 9 9 8 7
1 2 5 4 4 3 7 11 10 8 4 2 3 2 2 6 7 4 4 4 5 6 4 1 3 2 3 5 3 4 7 9 10 11 12 13 14 14 14 14 14 15 16 18 18 18 18 17 15 15 18 22 21 17 17 22 23 20 18 18 19 19 19 19 20 19 17 16 15 14 15 14 12 11 11 10 9 8 7 7 7 7 7 7 7 6 5
5 5 7 5 3 3 9 12 10 7 2 3 1 2 3 5 5 5 4 2 2 1 2 1 4 6 6 7 6 5 7 9 10 11 12 12 12 13 13 14 15 17 19 19 18 17 15 15 15 13 14 16 16 15 16 19 18 14 13 15 17 18 18 18 19 19 18 17 15 13 12 11 10 10 10 9 8 7 7 6 7 6 5 5 5 5 4
4 5 6 5 4 5 12 13 8 5 2 2 2 5 3 3 5 5 5 4 3 4 6 7 8 9 9 9 8 6 7 7 7 8 9 10 11 12 13 14 15 16 17 19 19 18 16 15 13 12 13 14 13 13 16 16 14 13 13 13 12 12 13 14 15 16 16 16 15 14 13 11 10 9 9 9 8 7 6 6 6 6 4 4 3 3 3
4 5 6 4 3 6 14 13 6 5 4 2 2 4 3 6 6 6 7 7 7 9 10 10 10 11 10 9 9 9 9 8 7 7 7 7 9 10 11 12 12 13 14 15 15 16 17 17 14 12 14 14 12 12 14 13 11 13 14 13 11 10 10 11 11 11 12 13 12 11 11 10 9 8 7 7 7 7 6 5 4 4 4 3 3 3 2
3 5 5 4 2 6 11 9 4 4 4 3 3 2 4 6 5 5 7 8 8 10 11 10 10 11 10 9 9 9 8 8 7 6 6 6 8 9 9 10 10 12 13 12 12 12 14 15 14 14 15 14 12 12 12 11 10 11 12 11 11 11 10 10 10 9 10 10 9 9 8 7 7 7 6 5 5 5 4 4 4 4 3 3 3 2 2
6 6 5 3 2 3 6 6 5 4 3 3 3 4 5 5 5 6 7 8 10 11 11 10 9 9 8 8 8 7 7 6 5 5 5 5 6 8 9 9 10 11 12 11 11 11 12 12 12 12 13 14 13 11 9 9 9 10 9 9 9 9 9 9 9 9 9 9 8 8 7 6 6 6 5 5 4 4 4 3 3 3 3 3 3 2 1
10 10 7 6 6 8 9 8 7 6 6 6 6 7 7 6 7 7 8 9 10 10 10 10 9 8 7 7 6 6 6 5 5 5 5 5 6 7 8 8 9 11 11 11 11 11 11 12 12 11 11 11 11 9 7 6 7 7 7 8 8 8 8 8 8 8 7 7 8 8 7 7 7 7 6 6 5 5 4 4 4 4 4 3 3 2 2
6 7 8 9 10 10 11 11 11 11 11 10 8 8 8 8 9 9 10 11 11 10 10 9 9 8 7 6 6 5 5 6 6 7 7 7 7 7 7 7 7 8 9 10 10 11 10 10 10 10 10 10 9 7 6 6 6 6 7 7 7 7 7 7 7 8 7 7 7 7 7 7 7 7 7 7 6 6 6 5 5 4 4 3 3 3 3
7 8 10 10 11 12 11 11 11 11 12 12 12 10 10 11 11 12 12 12 10 10 9 9 9 9 7 6 7 6 6 6 6 6 6 6 6 7 6 6 6 7 8 9 9 10 9 9 8 9 8 8 7 6 6 5 5 6 7 7 7 6 6 6 6 6 7 7 6 6 7 7 8 8 8 6 6 6 6 5 5 4 4 4 4 5 5
10 10 10 10 11 11 11 11 11 10 10 12 12 12 12 12 13 13 12 11 11 11 10 9 9 8 7 7 6 5 5 6 6 5 4 4 5 6 5 4 4 5 7 8 9 9 8 7 7 8 7 7 6 5 4 4 4 5 5 6 6 6 5 6 6 5 5 6 6 5 6 7 8 10 10 8 5 4 5 5 3 3 4 4 5 6 6
7 7 7 6 7 8 8 10 11 10 10 10 11 11 11 11 11 11 11 10 11 11 10 10 9 8 7 6 5 5 6 5 5 4 3 3 4 4 4 4 4 4 6 7 8 7 7 6 6 6 6 6 6 6 5 4 3 3 4 4 5 6 6 6 6 5 5 6 6 6 5 5 5 7 10 12 9 5 3 4 3 3 3 3 5 6 5
8 8 7 5 6 8 8 9 9 9 8 9 10 10 10 9 9 10 9 9 9 8 8 8 8 7 7 6 6 6 6 5 5 5 4 2 2 3 3 3 4 4 5 6 6 6 6 5 5 5 5 5 6 6 6 5 4 4 4 4 5 6 7 7 6 6 6 6 6 5 5 5 4 3 5 9 12 11 8 6 5 5 5 5 5 6 5
9 8 7 7 8 9 8 8 8 7 6 7 8 9 8 8 8 8 7 7 7 6 6 6 6 7 7 7 6 6 5 4 3 4 5 5 3 1 2 3 3 4 4 4 5 5 4 3 4 4 5 5 5 5 6 5 5 4 4 4 5 5 6 6 6 5 5 5 4 4 4 4 4 3 2 4 7 9 10 10 10 9 8 7 6 6 6
9 8 7 8 9 9 8 7 6 6 6 7 8 7 7 7 8 8 7 7 6 6 6 6 6 6 6 6 6 6 6 6 4 3 3 3 2 1 1 2 3 3 4 3 3 3 3 2 2 2 3 4 4 4 5 5 5 5 4 4 5 5 4 4 4 4 4 4 3 3 3 3 3 3 3 2 2 3 3 4 6 8 9 10 9 7 6
9 8 8 9 9 7 6 5 5 6 6 7 8 8 8 7 6 7 8 8 7 7 7 6 6 5 5 5 5 6 6 6 5 3 2 3 2 1 0 1 2 3 3 4 4 4 3 2 1 0 1 2 2 3 3 4 4 5 4 4 4 4 3 3 2 3 3 3 2 2 2 2 2 2 3 3 3 2 1 1 1 1 2 6 9 9 8
8 6 6 7 7 6 4 4 6 7 7 6 7 8 8 7 5 6 7 7 6 6 6 6 6 5 4 4 4 4 5 5 4 2 2 2 2 0 0 0 2 3 3 4 4 4 4 4 4 3 3 1 0 1 1 3 3 3 3 3 3 4 3 2 2 1 1 2 2 1 1 1 1 2 3 3 3 3 3 3 3 1 1 2 4 8 9
6 5 5 4 5 6 5 5 6 6 6 6 6 6 7 6 5 5 5 5 5 5 5 5 5 4 4 4 3 2 2 2 1 1 2 2 2 1 1 1 2 3 4 5 5 5 6 7 7 7 6 4 2 2 1 1 2 2 2 3 2 2 2 1 1 1 1 1 1 1 1 1 1 1 2 3 3 3 4 4 5 4 2 2 3 6 9
4 4 5 5 4 5 5 5 5 5 4 4 4 4 4 4 3 3 3 3 4 4 3 4 4 3 2 2 2 1 0 0 1 1 2 2 2 3 3 3 4 4 5 6 7 7 7 8 9 9 8 6 4 4 2 1 0 1 2 3 3 3 3 2 2 2 1 1 1 1 0 1 2 2 2 3 3 4 5 6 6 5 4 4 5 6 8
3 3 3 3 3 4 4 4 3 3 3 3 3 3 3 2 1 1 1 2 3 2 2 3 4 3 2 2 2 2 2 2 3 3 3 3 3 4 5 5 6 6 7 7 8 8 8 9 9 10 9 7 5 5 4 3 2 0 1 1 2 4 4 3 2 3 2 1 2 2 2 3 3 2 3 3 3 4 6 6 6 5 5 6 7 8 9
3 3 3 2 2 3 3 3 2 2 1 2 2 3 3 4 3 2 2 3 3 3 3 3 4 3 3 3 3 2 2 3 3 3 4 4 5 5 6 6 7 8 8 7 7 7 7 8 9 11 10 8 6 5 5 4 3 3 2 1 1 3 4 3 1 2 3 2 2 3 3 3 3 3 3 3 3 4 6 6 6 6 6 7 7 8 10
2 3 3 2 1 2 2 2 2 1 0 1 2 3 4 5 5 5 4 3 4 4 4 4 4 4 4 3 3 2 3 4 4 4 4 5 5 6 6 6 7 7 7 7 6 6 8 9 9 10 10 9 7 7 6 4 4 3 2 1 1 2 5 5 3 1 2 2 2 3 3 3 3 3 3 3 3 5 6 7 7 6 6 7 7 8 11
2 2 2 1 0 1 2 2 1 0 2 2 3 4 4 4 6 7 6 6 6 6 5 5 5 4 3 3 4 4 5 5 5 4 4 4 5 5 6 6 6 7 8 8 7 7 8 8 8 9 10 8 7 6 6 5 4 3 3 2 3 3 4 5 5 3 2 3 3 3 3 3 3 3 3 3 4 4 6 6 6 5 6 6 6 7 11
5 4 3 3 3 2 1 1 1 1 3 3 3 3 2 2 3 4 5 6 7 7 7 5 4 4 5 5 5 5 5 4 3 1 1 3 5 5 6 6 6 7 8 8 7 7 7 7 7 8 8 8 7 6 6 5 4 3 3 2 3 4 4 5 4 4 3 3 3 3 3 2 2 2 2 2 3 4 4 5 5 4 5 6 6 6 10
5 5 5 4 3 3 2 1 1 3 3 3 2 2 2 1 2 2 2 3 4 5 5 5 4 4 5 6 6 6 5 4 2 2 1 3 5 5 5 6 6 7 7 7 7 7 7 6 7 7 7 7 7 7 7 6 5 4 3 2 2 3 4 4 3 2 3 3 3 2 2 1 1 1 1 1 2 2 3 3 4 4 4 5 6 6 9
6 5 6 5 4 3 2 2 2 3 4 3 3 2 2 1 3 4 4 3 3 3 3 4 5 5 6 7 7 6 5 3 2 2 2 4 5 6 6 6 6 6 7 7 7 7 6 6 7 8 8 7 8 9 9 7 6 5 4 3 3 2 3 3 2 2 2 3 2 2 1 1 1 0 0 0 1 2 2 3 3 4 5 5 6 6 8
6 5 5 5 4 4 3 3 3 4 4 3 3 4 4 4 5 5 5 4 3 2 3 5 6 6 7 8 7 6 4 3 3 4 4 4 5 6 7 7 7 7 7 6 5 5 6 7 9 10 10 9 9 10 10 9 7 6 5 5 4 3 3 3 2 1 2 2 2 2 1 1 1 1 1 2 2 2 3 3 4 4 4 5 6 7 8
5 5 5 4 4 4 4 4 3 4 4 4 4 4 5 5 6 6 5 4 2 2 4 5 6 6 6 7 7 7 6 5 5 6 6 6 6 7 8 8 7 7 6 4 2 3 6 8 9 9 9 9 9 10 10 10 8 7 6 5 4 3 2 2 1 1 2 2 2 1 1 1 2 2 3 4 4 3 3 4 4 4 4 5 6 7 8
3 3 4 4 3 4 4 4 4 4 4 5 5 4 4 5 5 5 4 2 1 2 4 5 6 6 6 7 8 7 7 7 6 7 7 7 8 8 9 8 7 6 6 5 4 5 7 8 7 7 7 8 8 8 9 9 9 8 6 5 4 3 2 2 0 1 2 2 2 2 2 2 3 4 4 4 4 4 4 4 5 5 5 5 6 6 7
3 3 3 3 3 3 4 4 4 4 4 5 4 4 4 4 4 4 3 1 2 3 4 5 6 6 7 7 7 7 6 7 7 7 7 7 7 7 8 7 4 3 4 5 4 6 8 9 7 6 7 8 7 7 7 9 10 8 6 6 5 4 2 1 0 1 2 2 2 2 3 4 4 4 4 4 4 4 4 4 4 5 5 5 5 5 6
3 3 3 3 4 4 4 4 5 5 5 5 4 4 4 4 4 4 4 1 2 3 3 4 4 5 6 6 6 5 4 5 6 6 6 6 6 6 6 4 1 0 2 3 2 5 8 9 9 8 7 7 8 7 7 9 10 8 7 7 6 5 3 2 1 0 1 2 2 2 3 4 4 4 4 3 4 4 4 4 4 4 4 4 5 5 5
3 4 5 5 5 5 5 5 5 6 6 6 5 5 5 5 5 5 4 3 2 3 3 4 4 4 5 5 6 6 6 6 6 7 7 7 6 6 6 4 1 2 4 3 2 3 5 7 9 9 8 7 7 8 9 10 9 8 8 8 7 6 5 3 2 1 2 2 2 2 3 3 4 4 3 3 3 3 3 3 3 3 3 4 4 5 5
3 4 5 5 5 5 5 5 6 6 7 6 6 5 5 5 5 5 5 5 5 6 6 6 6 6 6 6 6 7 7 7 7 7 7 8 7 7 6 5 3 4 6 5 4 4 4 6 8 10 10 8 8 9 10 10 8 8 8 8 8 7 6 5 3 2 2 3 3 2 2 2 3 3 3 3 3 3 2 3 3 3 3 3 3 3 4
3 3 4 4 5 5 5 5 6 7 6 6 6 6 6 6 6 6 6 6 7 7 8 8 8 8 8 8 8 8 8 7 7 7 7 8 8 7 7 5 4 4 4 4 4 6 6 6 8 10 12 11 10 10 10 9 8 8 8 9 9 9 8 6 5 4 3 3 3 3 3 3 3 3 3 3 3 3 3 3 3 2 2 3 3 3 3
2 3 3 4 4 5 5 5 6 6 6 7 7 6 7 7 7 6 7 8 8 8 8 8 9 9 8 7 7 7 8 8 8 7 7 8 6 3 4 4 4 4 3 3 4 5 6 8 9 11 11 11 11 10 10 9 8 8 9 10 10 9 9 8 7 5 4 3 3 4 4 4 4 3 3 3 4 3 3 3 3 3 3 3 3 3 3
2 2 3 3 4 5 5 5 5 6 6 7 7 7 7 7 7 7 8 9 9 9 10 9 10 10 7 5 4 6 8 10 9 8 8 8 6 2 2 3 5 6 6 5 4 4 6 9 11 12 11 11 11 11 10 10 9 8 9 10 10 9 9 8 8 7 6 4 4 4 4 5 5 4 4 4 4 4 4 4 4 4 3 3 3 3 3
2 3 3 4 5 5 5 4 5 6 6 7 7 7 6 6 7 8 8 8 9 9 10 10 10 10 8 6 6 7 9 10 9 7 6 6 6 5 5 5 5 6 6 6 5 4 6 8 10 11 11 11 10 10 10 10 9 8 9 10 10 9 8 8 9 8 7 6 5 4 4 4 4 5 4 5 5 5 5 5 5 4 4 4 4 4 4
2 3 4 4 5 5 5 5 6 6 6 6 6 6 5 5 7 8 9 8 9 9 9 9 9 9 8 7 8 8 8 8 7 5 3 4 5 5 6 6 5 5 5 5 5 5 6 6 8 10 11 10 9 9 9 10 9 8 8 9 9 9 8 8 9 9 9 8 7 6 5 4 4 4 5 5 6 6 6 6 5 5 5 5 5 5 4
2 3 4 4 4 4 5 5 6 6 5 5 5 5 5 5 7 8 8 8 8 8 8 8 8 7 7 7 8 7 7 7 8 6 4 3 3 4 5 5 4 4 4 3 3 4 5 5 7 9 9 8 8 9 9 9 8 8 7 7 8 7 7 7 9 10 10 9 8 7 6 6 5 4 5 5 6 6 6 6 6 6 7 7 6 5 5
2 3 4 4 4 4 5 5 6 6 6 5 5 5 5 5 6 7 7 7 8 8 8 8 7 7 6 6 7 7 7 7 7 7 6 5 4 4 4 5 5 5 5 4 3 3 4 4 6 7 7 7 8 8 8 7 8 7 7 6 6 6 6 7 9 10 11 10 10 9 8 7 6 6 6 5 5 6 6 7 7 8 9 9 7 6 6
3 4 4 4 4 4 4 4 5 5 5 5 5 5 5 6 7 7 6 6 7 8 8 7 6 6 6 6 6 6 6 6 6 6 5 4 4 4 5 7 8 8 7 6 4 3 3 4 5 6 6 7 7 7 8 8 7 7 7 7 6 5 5 6 7 9 10 11 11 11 10 9 8 8 7 6 6 6 6 6 7 8 9 10 9 8 8
2 3 4 4 3 3 3 3 3 4 4 4 4 4 5 6 7 7 6 6 7 8 8 7 6 5 5 6 6 6 5 6 6 5 4 4 4 4 5 7 8 8 7 6 5 4 4 4 4 5 5 5 5 5 7 8 8 7 7 7 6 5 5 5 6 7 8 10 11 12 12 11 11 10 9 8 7 7 7 7 7 7 8 9 10 10 9
Wind_Direction
168 78 80 54 40 51 49 36 30 24 22 27 36 34 12 346 317 67 13 13 65 83 78 77 79 79 80 73 67 68 65 62 65 65 59 52 45 40 38 36 35 34 31 35 37 33 37 56 67 67 76 87 100 124 139 144 144 141 143 148 150 153 150 140 144 154 156 153 153 154 151 142 136 136 137 140 141 142 143 142 140 139 140 141 140 137 137
121 109 126 127 120 89 64 41 25 21 23 35 45 34 12 12 51 75 84 76 61 50 56 71 77 82 85 82 76 74 69 64 66 68 62 55 50 47 44 41 40 38 32 30 33 32 30 38 48 53 63 77 85 98 119 132 132 127 131 138 139 141 140 136 141 147 144 139 140 140 137 130 126 128 132 133 133 134 136 136 136 137 140 146 147 146 141
140 131 139 135 129 105 82 58 35 25 27 35 37 24 5 2 57 72 104 104 73 51 63 79 88 90 87 83 71 63 59 58 66 70 67 63 60 57 53 50 50 47 40 34 35 35 32 36 44 48 59 76 82 85 96 109 118 123 124 124 124 126 127 123 120 123 127 130 132 133 133 132 132 133 136 138 136 135 135 134 133 130 131 138 137 132 128
180 154 149 133 115 106 87 58 32 20 23 20 10 27 24 3 358 359 190 133 92 99 91 82 85 83 79 76 67 59 56 56 63 69 67 65 63 59 57 56 57 55 48 42 42 39 34 38 45 51 65 79 82 80 84 92 101 108 108 105 103 105 108 109 106 106 112 120 127 130 131 134 137 138 141 142 145 152 160 163 155 136 124 123 121 120 123
184 160 154 142 138 149 111 47 12 357 10 3 346 34 35 10 348 322 298 54 77 123 125 97 87 79 72 67 57 52 58 59 62 65 65 65 63 62 64 62 62 63 59 52 45 42 40 45 51 58 69 78 81 83 87 93 98 101 99 99 100 98 99 104 109 114 118 118 120 124 128 131 136 143 148 146 146 154 159 159 152 136 123 116 113 118 127
192 158 157 164 176 197 137 69 6 339 350 357 352 24 23 11 7 7 22 63 87 120 120 103 95 81 73 69 55 48 53 58 64 64 60 62 66 67 70 70 68 69 66 59 50 44 46 54 62 68 71 74 78 83 89 92 94 94 91 91 95 96 96 99 104 112 117 114 110 112 120 127 131 135 137 131 126 128 130 130 127 118 114 113 108 110 119
180 151 171 186 177 98 140 119 18 357 315 344 344 22 34 21 14 20 40 79 89 97 104 106 105 94 81 72 59 50 47 53 64 64 60 64 68 69 73 75 76 72 65 62 57 50 50 55 62 70 73 74 75 78 83 87 89 90 90 88 88 88 89 92 95 99 107 112 111 109 116 126 128 127 128 124 119 116 120 124 121 114 112 114 110 105 107
188 179 196 180 115 89 136 145 21 9 335 342 334 119 49 23 4 7 45 81 88 101 111 107 107 104 89 70 55 47 45 51 59 61 62 69 72 73 77 78 78 74 69 67 64 60 61 61 60 64 69 74 78 78 77 80 83 85 85 84 81 80 81 87 93 96 100 106 108 108 114 121 124 125 125 120 116 118 121 122 121 118 114 110 105 99 98
220 177 101 114 131 103 79 47 13 6 335 335 328 251 47 23 6 9 53 101 102 109 117 115 120 117 92 67 48 43 45 49 58 62 66 73 75 74 75 77 78 78 77 75 69 65 67 67 65 67 69 72 78 79 75 75 79 80 78 76 77 79 77 81 90 95 99 102 103 104 107 109 112 119 123 119 116 118 120 118 118 118 115 110 107 108 107
232 200 123 128 160 116 43 6 357 352 318 302 294 245 49 26 12 9 72 128 121 123 128 129 145 146 86 69 50 42 46 49 56 64 66 69 74 75 75 77 79 78 78 75 69 65 68 67 66 69 72 74 76 76 74 77 81 79 75 71 75 79 78 80 87 91 96 100 103 104 103 101 102 110 117 119 119 116 113 113 116 116 116 115 115 117 121
230 206 149 94 93 85 21 351 345 343 322 273 245 215 84 22 9 15 99 133 134 138 142 145 230 258 122 107 76 42 48 52 56 66 68 67 70 73 75 77 77 76 77 75 68 61 60 60 60 64 71 75 75 71 73 80 81 78 75 73 77 79 81 87 93 93 92 94 97 101 103 101 99 101 105 109 111 107 99 102 107 109 111 112 109 109 115
93 113 106 74 72 60 358 340 335 339 331 226 216 199 47 21 21 51 91 118 141 153 171 266 343 10 116 133 110 46 50 56 56 64 71 73 75 77 75 72 71 71 73 72 66 59 53 53 58 62 68 72 68 63 68 75 75 72 74 79 84 84 85 89 94 95 93 90 88 89 94 94 94 97 99 96 93 89 86 89 93 95 99 102 104 104 101
97 101 104 90 86 36 350 335 333 343 323 205 212 7 3 11 37 68 75 92 143 210 299 357 53 63 82 107 110 73 57 58 53 54 60 65 70 76 77 74 72 71 71 71 68 64 60 61 61 62 66 67 63 61 65 67 67 67 74 80 81 81 81 83 87 91 93 93 90 86 86 86 85 86 90 91 87 80 78 82 84 86 93 102 106 108 104
93 105 107 103 101 36 351 334 329 345 335 197 17 5 360 35 50 52 47 53 72 74 80 93 100 96 93 103 113 101 81 74 65 61 64 65 66 75 82 83 81 77 75 74 71 69 70 71 64 60 65 65 62 64 67 65 68 78 83 81 74 71 74 76 77 79 81 83 84 83 81 80 77 73 76 81 83 81 79 81 82 81 86 98 105 114 120
84 97 86 80 87 13 352 344 343 7 14 25 348 349 46 70 60 50 49 57 79 95 97 97 98 100 102 105 108 101 94 93 86 77 77 74 69 73 78 82 84 83 78 73 67 66 70 71 65 64 70 69 64 66 70 70 75 83 85 80 74 70 72 72 70 70 68 66 67 67 66 66 64 61 64 68 69 72 76 80 83 79 76 84 100 110 114
42 80 68 57 20 342 350 3 31 24 5 343 316 346 75 75 65 68 69 68 79 91 95 93 91 94 97 99 102 101 99 99 96 88 82 75 71 69 69 73 82 86 83 77 69 64 63 63 63 66 74 75 69 66 70 72 74 76 75 73 70 66 64 65 65 64 62 60 60 59 58 60 60 60 63 68 69 75 80 86 96 95 86 80 80 85 92
64 77 83 83 55 10 19 38 51 43 31 29 42 75 92 80 70 79 81 77 78 81 86 88 84 82 90 98 105 108 107 105 105 102 92 82 81 79 74 76 87 92 90 84 76 66 58 57 62 67 72 76 73 69 69 70 68 66 61 59 60 59 57 57 57 59 61 60 59 57 55 58 59 58 60 67 72 77 81 85 89 84 78 79 71 51 42
88 82 84 89 79 68 65 65 66 67 70 74 77 85 88 84 86 93 91 88 86 84 85 85 80 76 82 88 92 101 111 116 119 123 120 109 104 100 94 94 99 98 95 90 84 76 68 64 66 68 71 76 76 73 68 61 58 59 58 57 59 58 56 55 52 54 57 54 50 48 45 48 51 48 47 50 52 53 54 57 59 57 51 48 45 39 24
109 85 81 82 79 76 74 74 75 76 77 82 89 93 96 99 100 100 100 100 99 96 93 92 91 86 74 65 64 66 78 91 102 117 125 123 120 118 115 115 113 108 102 98 92 87 81 75 73 72 72 74 76 75 69 59 54 55 56 57 58 57 57 59 59 57 55 51 48 45 42 44 46 42 41 41 40 40 37 32 31 38 40 33 24 23 16
99 96 96 90 81 78 76 75 76 77 80 85 90 97 105 110 109 110 112 111 108 105 103 102 100 94 79 66 63 53 47 52 61 78 95 103 112 120 124 126 123 113 106 101 94 88 83 80 79 77 75 72 70 67 61 57 58 58 54 53 56 59 60 63 65 63 58 56 55 55 53 52 49 43 36 30 33 38 32 23 20 19 19 25 23 12 4
100 105 110 106 94 86 79 77 79 82 86 91 96 102 108 112 113 115 117 118 118 117 117 115 110 105 97 88 83 73 67 65 61 62 78 97 115 127 134 130 119 110 107 103 96 89 83 78 76 75 71 67 62 57 56 59 64 66 63 59 59 61 64 65 65 63 59 56 55 58 64 66 62 52 39 28 32 38 15 2 12 18 10 13 12 4 360
102 107 110 106 102 97 89 85 85 86 92 98 102 108 114 117 119 120 121 121 120 121 122 123 122 120 115 108 97 81 72 66 55 58 86 128 144 151 148 138 131 127 121 117 112 106 98 88 79 72 63 54 47 42 44 54 65 66 62 61 61 61 60 57 53 53 56 55 53 55 59 64 72 63 41 30 35 42 1 337 351 17 19 13 7 5 1
93 102 101 91 96 102 101 99 94 88 92 97 98 103 109 114 121 126 125 123 122 123 125 124 125 130 132 128 114 91 72 49 28 24 32 63 133 161 171 171 164 152 140 138 136 129 117 103 89 77 68 58 47 41 39 42 51 50 44 47 55 58 56 51 44 43 47 46 45 49 51 45 47 64 52 40 41 45 45 44 48 44 38 33 20 10 358
99 101 98 96 104 108 108 108 101 92 89 89 89 95 100 104 110 114 112 114 120 125 126 125 126 132 138 135 124 112 103 86 55 32 21 19 30 117 187 206 192 173 170 166 153 144 136 115 89 76 71 64 57 52 49 49 52 50 44 49 55 57 57 54 48 45 48 48 47 50 57 52 39 35 54 62 56 54 52 52 53 50 42 33 21 6 351
97 97 95 97 102 107 109 107 99 93 89 88 90 93 91 90 95 98 96 99 107 112 120 127 129 133 140 139 130 123 118 113 111 106 79 53 46 70 205 232 229 216 214 210 190 179 174 149 107 73 61 62 57 53 52 53 53 51 50 54 54 53 60 65 61 56 52 52 54 51 51 60 57 40 32 34 58 84 80 54 41 37 32 27 22 12 356
91 99 105 105 104 110 118 114 110 112 107 99 100 102 98 90 87 87 88 90 92 96 105 117 126 131 131 125 121 117 113 118 133 142 115 96 105 128 155 231 247 252 248 239 232 226 219 200 186 225 15 58 65 57 56 58 55 54 57 56 52 53 53 43 49 67 61 50 58 68 56 56 64 56 47 38 34 48 85 100 45 36 29 25 21 15 7
89 89 99 108 114 118 113 99 108 122 123 112 109 112 114 116 112 104 101 100 99 98 98 108 124 136 132 124 120 113 114 126 138 120 68 69 79 50 359 247 250 257 254 247 241 235 233 232 232 247 260 246 158 115 95 80 66 64 70 67 74 94 96 49 30 68 85 58 52 56 52 52 47 34 36 38 33 31 31 22 7 347 152 83 18 10 18
82 55 39 60 97 111 103 93 109 125 126 120 121 124 126 130 131 122 118 118 122 123 120 122 133 143 143 146 152 139 131 148 142 56 39 34 19 352 312 264 257 261 260 255 249 240 237 235 236 244 249 239 229 237 211 109 67 61 62 48 54 90 100 62 21 21 26 37 35 36 40 28 12 8 13 16 17 17 20 18 5 356 24 53 2 356 12
69 41 30 42 76 111 118 115 125 136 135 134 144 151 148 147 140 121 118 133 146 146 144 149 162 175 161 163 194 245 258 254 323 348 334 324 317 293 273 263 263 264 265 261 257 254 252 247 243 246 246 236 230 237 231 218 350 34 38 28 27 31 20 360 344 330 307 288 343 31 59 312 317 330 339 352 4 3 3 11 8 355 4 22 13 6 10
51 33 36 57 97 134 135 127 132 141 151 165 181 190 191 192 190 138 154 176 175 173 178 187 196 209 211 208 240 279 309 322 324 317 310 307 295 281 274 267 262 261 261 260 256 254 256 255 249 246 244 237 232 233 233 236 243 251 26 29 34 20 1 346 332 320 305 272 277 285 274 283 306 327 326 329 346 351 354 5 8 359 5 17 15 14 11
54 47 46 61 116 149 142 134 131 128 154 199 217 234 236 232 232 231 216 207 206 209 217 220 225 231 230 236 253 272 282 292 298 293 292 289 282 277 273 266 265 271 274 271 265 259 260 261 253 242 236 235 234 233 233 236 237 236 243 229 53 12 7 19 17 326 331 328 284 275 282 289 292 298 306 311 324 337 348 1 6 6 12 15 14 15 9
78 100 103 102 157 184 166 154 146 121 100 256 274 281 274 264 259 252 239 237 246 245 234 231 239 244 241 243 245 239 248 267 275 272 272 275 272 270 267 263 267 274 277 276 270 261 260 263 255 238 228 228 232 233 233 238 241 248 271 304 355 5 12 24 35 357 344 344 314 291 289 288 281 283 298 308 314 328 345 356 3 10 14 12 16 18 4
36 76 95 76 294 217 201 201 209 21 20 355 326 308 296 285 276 267 260 258 257 255 254 253 244 229 220 224 231 236 250 266 269 257 252 262 267 267 265 262 261 264 264 262 258 254 254 257 250 232 222 223 232 234 233 240 249 255 275 316 339 346 356 3 6 1 346 341 334 316 297 291 287 286 296 309 320 335 349 354 359 13 16 12 19 12 353
33 26 17 4 345 334 315 260 262 342 355 346 331 317 310 314 301 282 275 274 265 256 254 251 228 207 213 224 233 237 244 261 274 264 230 260 268 270 269 263 259 261 262 257 248 245 245 245 237 225 221 229 240 238 230 236 250 255 260 293 328 340 343 349 354 354 342 341 343 325 295 286 288 288 292 305 321 341 358 1 5 22 21 14 20 12 359
48 51 51 48 40 28 14 354 341 341 339 342 339 319 304 327 348 336 309 300 288 265 243 218 198 212 226 225 224 224 223 240 291 352 360 278 271 269 269 264 256 254 255 249 241 241 242 238 231 224 226 236 239 232 226 229 238 241 239 252 296 326 340 348 355 3 354 347 347 332 299 270 243 266 289 312 331 351 14 22 27 38 34 24 27 27 18
48 54 59 60 63 61 40 10 357 342 335 336 339 327 305 297 317 316 304 297 300 280 222 187 183 206 215 209 209 214 211 213 253 286 296 285 276 269 265 262 258 260 263 256 243 237 235 233 230 229 231 236 234 226 222 226 233 233 223 223 249 292 330 343 353 25 23 7 13 37 76 141 146 162 225 159 66 43 53 60 54 53 49 43 44 46 41
45 40 41 40 38 28 9 358 350 337 326 321 318 314 304 296 301 307 304 296 290 256 197 182 182 199 210 209 208 209 200 198 228 254 274 289 289 280 272 263 257 260 265 261 242 222 218 225 229 228 227 230 231 227 224 226 230 229 218 218 237 277 324 337 337 42 56 41 52 78 98 130 140 135 137 131 116 95 80 74 69 66 64 60 57 57 54
49 36 30 20 6 353 347 340 331 322 314 308 305 303 304 305 305 304 302 297 278 199 184 182 181 189 202 206 207 209 210 216 236 255 268 279 284 281 272 264 261 264 268 265 236 209 220 228 229 225 224 225 224 224 227 229 226 221 220 222 231 260 314 335 341 80 77 67 70 73 65 83 129 141 138 129 120 103 85 78 79 79 75 70 68 64 59
50 40 25 3 343 336 330 319 311 310 309 308 307 305 310 317 312 300 293 298 181 170 176 177 177 183 192 201 208 213 215 220 236 254 268 278 283 279 272 270 272 277 281 277 251 227 232 233 221 210 216 220 215 219 230 229 216 210 219 227 224 238 291 326 352 131 111 92 82 73 73 93 117 129 128 126 120 104 90 88 90 86 79 76 73 66 56
14 19 11 353 336 328 319 310 307 308 305 304 303 304 314 325 315 291 275 229 141 161 175 183 194 204 211 220 230 230 216 213 229 252 266 272 273 272 273 276 274 272 280 278 250 231 236 233 214 201 210 215 210 214 223 214 202 203 220 226 219 224 255 295 295 156 139 124 106 87 86 100 118 127 124 119 115 106 98 95 92 86 81 80 75 64 54
326 339 340 332 327 324 316 307 302 300 296 294 293 296 303 311 308 290 276 241 154 160 179 200 223 236 239 244 252 251 229 210 217 233 249 258 263 272 284 294 323 148 288 290 254 239 240 231 215 207 210 209 203 202 202 198 198 209 225 223 218 222 232 237 243 150 144 144 131 109 104 111 122 129 126 118 113 106 100 97 95 90 87 84 78 72 70
319 325 320 318 318 316 309 302 299 297 295 292 288 284 286 290 290 284 275 253 213 212 221 225 241 259 264 259 255 252 244 233 227 227 235 248 263 281 297 316 338 283 284 292 287 257 243 225 213 212 213 207 203 203 199 196 204 221 227 219 215 218 220 217 216 184 163 166 158 131 125 129 129 126 127 129 126 118 111 113 113 107 99 93 87 83 83
331 325 315 315 318 314 305 299 297 297 297 295 289 281 278 280 280 277 269 255 244 248 253 251 250 254 253 249 250 253 252 251 249 245 246 252 256 259 269 288 301 287 282 281 266 246 232 215 210 212 211 205 205 208 207 207 214 223 220 213 211 213 212 211 212 203 187 189 186 169 154 150 141 134 137 143 143 142 145 143 133 121 111 105 101 95 94
337 327 322 324 322 311 299 293 293 295 299 304 299 285 274 272 273 272 270 263 256 259 263 262 259 258 254 250 254 258 261 261 259 254 256 264 259 238 226 232 257 274 281 278 259 245 236 221 214 215 212 208 206 209 211 215 221 220 213 209 209 209 207 206 205 198 192 197 197 187 180 180 172 160 156 157 159 164 170 167 159 148 131 116 111 112 114
337 337 337 330 316 305 302 304 306 308 310 308 299 283 270 269 270 268 268 267 264 265 267 267 268 269 266 262 266 277 282 282 277 264 262 271 273 220 171 181 209 231 254 274 266 253 243 232 224 218 212 209 209 211 214 220 223 218 211 210 210 208 205 205 205 200 193 193 195 191 189 192 191 185 178 176 174 174 177 176 173 165 152 138 136 138 132
321 326 325 318 312 315 319 318 314 308 301 295 289 277 268 268 269 267 266 266 267 268 268 268 270 271 269 262 267 280 281 277 270 259 257 268 274 251 188 213 232 239 254 268 267 256 250 242 231 219 210 208 212 215 218 221 221 216 212 212 213 212 209 207 205 204 201 196 192 192 196 198 198 196 195 193 191 187 186 182 175 167 163 161 156 148 141
306 305 309 313 316 318 316 307 298 293 289 290 292 290 283 276 273 270 269 269 270 272 272 269 267 267 263 245 236 249 260 264 262 249 240 247 252 238 223 231 244 252 257 256 247 247 258 251 232 217 211 212 214 217 219 218 215 213 213 213 213 215 215 211 208 209 209 204 195 191 195 200 201 197 196 198 198 195 194 191 186 180 177 174 164 155 152
306 308 314 316 311 308 303 295 290 291 294 299 303 304 299 288 277 271 270 270 271 273 273 268 265 265 261 249 242 243 249 260 268 263 238 233 243 233 214 213 232 251 253 244 237 250 264 251 226 214 213 215 214 215 219 217 213 213 215 213 211 214 216 213 211 212 212 206 200 200 204 206 203 197 197 201 203 202 199 199 200 199 195 190 184 180 178
321 315 314 310 306 308 310 303 297 300 307 308 306 308 308 297 281 271 269 272 274 274 272 267 262 259 254 248 245 244 243 248 261 272 275 267 257 236 210 204 222 239 231 214 223 249 258 243 221 215 214 213 212 214 216 215 214 216 217 213 210 211 210 208 210 213 215 213 212 215 218 218 214 208 204 204 207 208 207 208 212 212 206 200 197 197 199
329 319 321 326 329 330 328 321 318 322 324 317 310 311 311 300 289 280 277 278 280 280 276 269 261 256 253 249 246 245 244 243 250 261 269 267 255 233 218 216 222 217 198 187 200 229 237 230 226 223 217 212 214 217 216 214 216 218 214 206 200 196 195 199 204 208 211 214 219 222 224 223 222 221 217 212 209 210 211 214 222 224 218 209 205 206 209
340 340 345 346 341 336 333 331 331 329 324 315 310 308 303 296 293 292 294 298 294 287 280 274 264 257 255 254 250 247 246 246 249 255 259 259 251 237 226 222 219 211 195 183 182 190 194 203 218 224 217 213 218 223 219 215 211 206 197 191 189 192 202 211 212 211 212 215 218 222 226 227 226 225 225 223 216 213 213 217 224 227 223 217 214 216 217
344 352 348 338 333 335 338 340 338 331 322 316 314 313 311 307 300 296 300 307 300 287 279 279 278 269 262 263 262 254 246 246 251 254 253 249 244 236 222 213 208 202 193 184 177 171 172 184 201 207 203 203 213 218 212 206 200 191 186 189 198 208 215 221 221 218 217 217 217 219 223 226 225 226 228 227 221 219 220 221 221 221 220 219 218 219 218